JST759 YPAD-YSSY

Flight info

Callsign JST759
Flight time 1h 45m
Altitude 37000
Route AD H247 CULIN Y59 TESAT
Aircraft A320/M-SDE3FGHIRWY/LB1

Departure

Time 2026-04-26 05:34
Airport Adelaide International Airport (YPAD)

Arrival

Time 2026-04-26 07:19
Airport Sydney Kingsford Smith International Airport (YSSY)
Time Latitude Longitude Altitude Speed Heading
2026-04-26 04:56 -34.94080 138.53623 27 ft 0 kts 320°
2026-04-26 05:22 -34.94091 138.53635 27 ft 2 kts 319°
2026-04-26 05:22 -34.94104 138.53648 27 ft 2 kts 318°
2026-04-26 05:22 -34.94116 138.53662 27 ft 2 kts 316°
2026-04-26 05:23 -34.94128 138.53676 26 ft 2 kts 311°
2026-04-26 05:23 -34.94138 138.53692 30 ft 2 kts 287°
2026-04-26 05:23 -34.94138 138.53710 30 ft 1 kts 234°
2026-04-26 05:23 -34.94136 138.53713 29 ft 0 kts 237°
2026-04-26 05:26 -34.94148 138.53694 27 ft 8 kts 232°
2026-04-26 05:26 -34.94192 138.53638 29 ft 10 kts 197°
2026-04-26 05:27 -34.94249 138.53706 24 ft 15 kts 74°
2026-04-26 05:27 -34.94175 138.53825 27 ft 20 kts 51°
2026-04-26 05:27 -34.94076 138.53966 26 ft 24 kts 51°
2026-04-26 05:27 -34.93979 138.54108 26 ft 8 kts 50°
2026-04-26 05:28 -34.93956 138.54143 27 ft 1 kts 51°
2026-04-26 05:28 -34.93948 138.54166 27 ft 5 kts 77°
2026-04-26 05:28 -34.93952 138.54186 27 ft 4 kts 110°
2026-04-26 05:28 -34.93962 138.54205 27 ft 2 kts 132°
2026-04-26 05:29 -34.93993 138.54240 27 ft 5 kts 140°
2026-04-26 05:29 -34.93994 138.54241 27 ft 0 kts 139°
2026-04-26 05:33 -34.94008 138.54255 27 ft 7 kts 139°
2026-04-26 05:33 -34.94075 138.54297 28 ft 13 kts 202°
2026-04-26 05:33 -34.94177 138.54164 28 ft 43 kts 230°
2026-04-26 05:34 -34.94569 138.53593 23 ft 127 kts 230°
2026-04-26 05:34 -34.95252 138.52597 355 ft 159 kts 230°
2026-04-26 05:34 -34.95934 138.51558 1297 ft 158 kts 233°
2026-04-26 05:34 -34.96711 138.50413 1807 ft 191 kts 234°
2026-04-26 05:35 -34.97617 138.49092 2311 ft 211 kts 232°
2026-04-26 05:35 -34.98602 138.47669 2829 ft 228 kts 232°
2026-04-26 05:35 -34.99675 138.46119 3321 ft 250 kts 231°
2026-04-26 05:35 -35.00825 138.44457 3926 ft 265 kts 231°
2026-04-26 05:36 -35.02230 138.42956 4741 ft 276 kts 210°
2026-04-26 05:36 -35.04097 138.42316 5605 ft 286 kts 184°
2026-04-26 05:36 -35.06067 138.42796 6456 ft 296 kts 155°
2026-04-26 05:36 -35.07793 138.44232 7298 ft 301 kts 142°
2026-04-26 05:37 -35.09244 138.46090 8109 ft 307 kts 123°
2026-04-26 05:37 -35.10188 138.48435 8944 ft 309 kts 105°
2026-04-26 05:37 -35.10543 138.51023 9772 ft 310 kts 88°
2026-04-26 05:37 -35.10405 138.53665 10418 ft 319 kts 82°
2026-04-26 05:38 -35.10216 138.56463 10729 ft 338 kts 83°
2026-04-26 05:38 -35.10028 138.59359 11344 ft 345 kts 83°
2026-04-26 05:38 -35.09848 138.62302 12074 ft 349 kts 83°
2026-04-26 05:38 -35.09668 138.65270 12809 ft 352 kts 83°
2026-04-26 05:39 -35.09483 138.68287 13541 ft 355 kts 83°
2026-04-26 05:39 -35.09294 138.71288 14238 ft 359 kts 83°
2026-04-26 05:39 -35.09099 138.74351 14837 ft 363 kts 84°
2026-04-26 05:39 -35.08899 138.77452 15434 ft 367 kts 84°
2026-04-26 05:40 -35.08696 138.80577 16054 ft 371 kts 85°
2026-04-26 05:40 -35.08492 138.83724 16660 ft 374 kts 86°
2026-04-26 05:40 -35.08285 138.86910 17270 ft 378 kts 86°
2026-04-26 05:40 -35.08077 138.90113 17898 ft 381 kts 87°
2026-04-26 05:41 -35.07867 138.93310 18518 ft 384 kts 87°
2026-04-26 05:41 -35.07652 138.96594 19068 ft 388 kts 87°
2026-04-26 05:41 -35.07435 138.99889 19607 ft 391 kts 87°
2026-04-26 05:41 -35.07215 139.03223 20174 ft 395 kts 87°
2026-04-26 05:42 -35.06992 139.06584 20733 ft 399 kts 88°
2026-04-26 05:42 -35.06766 139.09975 21270 ft 402 kts 88°
2026-04-26 05:42 -35.06536 139.13404 21785 ft 406 kts 88°
2026-04-26 05:42 -35.06305 139.16839 22287 ft 410 kts 89°
2026-04-26 05:43 -35.06067 139.20364 22799 ft 415 kts 89°
2026-04-26 05:43 -35.05826 139.23891 23296 ft 419 kts 89°
2026-04-26 05:43 -35.05579 139.27464 23778 ft 424 kts 90°
2026-04-26 05:43 -35.05332 139.31060 24176 ft 428 kts 90°
2026-04-26 05:44 -35.05083 139.34696 24586 ft 431 kts 90°
2026-04-26 05:44 -35.04833 139.38317 24983 ft 434 kts 90°
2026-04-26 05:44 -35.04577 139.42006 25386 ft 438 kts 90°
2026-04-26 05:44 -35.04317 139.45713 25790 ft 440 kts 90°
2026-04-26 05:45 -35.04052 139.49463 26200 ft 443 kts 90°
2026-04-26 05:45 -35.03783 139.53227 26598 ft 446 kts 90°
2026-04-26 05:45 -35.03512 139.57016 26991 ft 448 kts 90°
2026-04-26 05:45 -35.03242 139.60814 27372 ft 451 kts 90°
2026-04-26 05:46 -35.02969 139.64644 27767 ft 453 kts 90°
2026-04-26 05:46 -35.02695 139.68489 28153 ft 455 kts 90°
2026-04-26 05:46 -35.02419 139.72308 28533 ft 458 kts 90°
2026-04-26 05:46 -35.02137 139.76194 28912 ft 460 kts 90°
2026-04-26 05:47 -35.01850 139.80144 29308 ft 462 kts 90°
2026-04-26 05:47 -35.01570 139.84013 29675 ft 464 kts 90°
2026-04-26 05:47 -35.01280 139.87996 30050 ft 466 kts 90°
2026-04-26 05:47 -35.00992 139.91894 30392 ft 468 kts 91°
2026-04-26 05:48 -35.00695 139.95870 30689 ft 470 kts 91°
2026-04-26 05:48 -35.00396 139.99855 30988 ft 472 kts 91°
2026-04-26 05:48 -35.00094 140.03862 31270 ft 475 kts 91°
2026-04-26 05:48 -34.99790 140.07899 31558 ft 476 kts 91°
2026-04-26 05:49 -34.99484 140.11936 31842 ft 478 kts 91°
2026-04-26 05:49 -34.98864 140.20032 32543 ft 478 kts 91°
2026-04-26 05:49 -34.98550 140.24068 32928 ft 478 kts 91°
2026-04-26 05:50 -34.98237 140.28095 33308 ft 477 kts 91°
2026-04-26 05:50 -34.97922 140.32180 33691 ft 477 kts 91°
2026-04-26 05:50 -34.97724 140.36203 34060 ft 471 kts 98°
2026-04-26 05:50 -34.97772 140.40195 34404 ft 470 kts 98°
2026-04-26 05:51 -34.97814 140.44182 34752 ft 469 kts 98°
2026-04-26 05:51 -34.97844 140.48160 35089 ft 469 kts 98°
2026-04-26 05:51 -34.97870 140.52130 35416 ft 468 kts 98°
2026-04-26 05:51 -34.97893 140.56056 35732 ft 467 kts 98°
2026-04-26 05:52 -34.97914 140.60022 36046 ft 467 kts 98°
2026-04-26 05:52 -34.97938 140.64026 36362 ft 466 kts 98°
2026-04-26 05:52 -34.97963 140.67973 36657 ft 465 kts 98°
2026-04-26 05:52 -34.97985 140.71865 36957 ft 464 kts 99°
2026-04-26 05:53 -34.98009 140.75800 37138 ft 464 kts 99°
2026-04-26 05:53 -34.98055 140.83644 37165 ft 460 kts 99°
2026-04-26 05:54 -34.98102 140.91432 37162 ft 458 kts 99°
2026-04-26 05:54 -34.98136 140.99190 37156 ft 457 kts 99°
2026-04-26 05:55 -34.98162 141.06946 37159 ft 455 kts 99°
2026-04-26 05:55 -34.98176 141.13363 37161 ft 455 kts 99°
2026-04-26 05:56 -34.98193 141.21092 37173 ft 455 kts 99°
2026-04-26 05:56 -34.98207 141.28807 37181 ft 454 kts 99°
2026-04-26 05:57 -34.98211 141.36506 37184 ft 452 kts 100°
2026-04-26 05:57 -34.98207 141.44135 37178 ft 449 kts 100°
2026-04-26 05:58 -34.98208 141.51753 37176 ft 448 kts 100°
2026-04-26 05:58 -34.98211 141.59356 37177 ft 447 kts 100°
2026-04-26 05:59 -34.98200 141.66929 37174 ft 447 kts 100°
2026-04-26 05:59 -34.98180 141.74567 37175 ft 446 kts 99°
2026-04-26 06:00 -34.98153 141.82183 37175 ft 445 kts 99°
2026-04-26 06:00 -34.98124 141.89736 37174 ft 444 kts 99°
2026-04-26 06:01 -34.98100 141.97271 37170 ft 443 kts 99°
2026-04-26 06:01 -34.98066 142.04754 37173 ft 443 kts 99°
2026-04-26 06:02 -34.98023 142.12267 37176 ft 442 kts 99°
2026-04-26 06:02 -34.97975 142.19763 37172 ft 441 kts 99°
2026-04-26 06:03 -34.97928 142.27263 37172 ft 441 kts 99°
2026-04-26 06:03 -34.97880 142.34748 37168 ft 440 kts 99°
2026-04-26 06:04 -34.97827 142.42216 37168 ft 440 kts 99°
2026-04-26 06:04 -34.97763 142.49648 37173 ft 440 kts 99°
2026-04-26 06:05 -34.97688 142.57104 37175 ft 439 kts 98°
2026-04-26 06:05 -34.97617 142.64569 37175 ft 439 kts 98°
2026-04-26 06:06 -34.97543 142.72019 37164 ft 439 kts 98°
2026-04-26 06:06 -34.97463 142.79470 37170 ft 439 kts 98°
2026-04-26 06:07 -34.97374 142.86978 37170 ft 439 kts 97°
2026-04-26 06:07 -34.97283 142.94429 37167 ft 439 kts 97°
2026-04-26 06:08 -34.97191 143.01956 37168 ft 439 kts 97°
2026-04-26 06:08 -34.97095 143.09417 37167 ft 440 kts 96°
2026-04-26 06:09 -34.96989 143.16888 37164 ft 441 kts 96°
2026-04-26 06:09 -34.96879 143.24377 37160 ft 441 kts 96°
2026-04-26 06:10 -34.96785 143.31879 37155 ft 442 kts 95°
2026-04-26 06:10 -34.96699 143.39395 37152 ft 443 kts 95°
2026-04-26 06:11 -34.96608 143.46919 37146 ft 444 kts 95°
2026-04-26 06:11 -34.96506 143.54457 37155 ft 445 kts 94°
2026-04-26 06:12 -34.96398 143.62030 37156 ft 446 kts 94°
2026-04-26 06:12 -34.96273 143.69604 37155 ft 447 kts 93°
2026-04-26 06:13 -34.96151 143.77199 37161 ft 448 kts 92°
2026-04-26 06:13 -34.96036 143.84810 37168 ft 449 kts 92°
2026-04-26 06:14 -34.95916 143.92435 37169 ft 449 kts 91°
2026-04-26 06:14 -34.95792 144.00064 37183 ft 449 kts 91°
2026-04-26 06:15 -34.95654 144.07631 37179 ft 449 kts 91°
2026-04-26 06:15 -34.95509 144.15240 37187 ft 448 kts 90°
2026-04-26 06:16 -34.95360 144.22828 37186 ft 448 kts 90°
2026-04-26 06:16 -34.95215 144.30416 37186 ft 447 kts 90°
2026-04-26 06:17 -34.95064 144.37996 37185 ft 447 kts 90°
2026-04-26 06:17 -34.94931 144.44363 37188 ft 447 kts 90°
2026-04-26 06:18 -34.94763 144.51941 37186 ft 447 kts 89°
2026-04-26 06:18 -34.94592 144.59570 37191 ft 446 kts 89°
2026-04-26 06:19 -34.94427 144.67133 37188 ft 446 kts 89°
2026-04-26 06:19 -34.94261 144.74647 37193 ft 445 kts 89°
2026-04-26 06:20 -34.94081 144.82194 37191 ft 445 kts 88°
2026-04-26 06:20 -34.93884 144.89838 37192 ft 444 kts 88°
2026-04-26 06:21 -34.93698 144.97387 37190 ft 444 kts 88°
2026-04-26 06:21 -34.93498 145.04876 37187 ft 444 kts 88°
2026-04-26 06:22 -34.93291 145.12404 37183 ft 444 kts 87°
2026-04-26 06:22 -34.93083 145.19992 37187 ft 444 kts 87°
2026-04-26 06:23 -34.92874 145.27577 37190 ft 445 kts 87°
2026-04-26 06:23 -34.92642 145.35160 37192 ft 445 kts 86°
2026-04-26 06:24 -34.92409 145.42754 37193 ft 445 kts 86°
2026-04-26 06:24 -34.92186 145.50307 37193 ft 445 kts 86°
2026-04-26 06:25 -34.91949 145.57898 37201 ft 445 kts 86°
2026-04-26 06:25 -34.91706 145.65460 37201 ft 445 kts 86°
2026-04-26 06:26 -34.91469 145.73002 37202 ft 445 kts 86°
2026-04-26 06:26 -34.91222 145.80538 37203 ft 445 kts 86°
2026-04-26 06:27 -34.90960 145.88116 37200 ft 444 kts 86°
2026-04-26 06:27 -34.90709 145.95654 37201 ft 445 kts 86°
2026-04-26 06:28 -34.90455 146.03184 37203 ft 445 kts 86°
2026-04-26 06:28 -34.90186 146.10727 37207 ft 445 kts 86°
2026-04-26 06:29 -34.89909 146.18272 37205 ft 445 kts 86°
2026-04-26 06:29 -34.89625 146.25857 37210 ft 445 kts 86°
2026-04-26 06:30 -34.89348 146.33389 37209 ft 445 kts 86°
2026-04-26 06:30 -34.89067 146.40926 37210 ft 445 kts 86°
2026-04-26 06:31 -34.88774 146.48462 37208 ft 445 kts 86°
2026-04-26 06:31 -34.88472 146.56065 37212 ft 445 kts 86°
2026-04-26 06:32 -34.88174 146.63562 37215 ft 445 kts 86°
2026-04-26 06:32 -34.87875 146.71097 37216 ft 445 kts 86°
2026-04-26 06:33 -34.87618 146.77413 37220 ft 445 kts 86°
2026-04-26 06:33 -34.87304 146.84993 37220 ft 445 kts 86°
2026-04-26 06:34 -34.86981 146.92533 37219 ft 444 kts 86°
2026-04-26 06:34 -34.86665 147.00013 37218 ft 444 kts 86°
2026-04-26 06:35 -34.86340 147.07533 37221 ft 444 kts 86°
2026-04-26 06:35 -34.86005 147.15051 37223 ft 444 kts 86°
2026-04-26 06:36 -34.85668 147.22568 37221 ft 444 kts 86°
2026-04-26 06:36 -34.85331 147.30089 37221 ft 444 kts 86°
2026-04-26 06:37 -34.84989 147.37608 37214 ft 444 kts 86°
2026-04-26 06:37 -34.84638 147.45125 37216 ft 444 kts 86°
2026-04-26 06:38 -34.84278 147.52646 37217 ft 445 kts 85°
2026-04-26 06:38 -34.83918 147.60186 37220 ft 445 kts 85°
2026-04-26 06:39 -34.83551 147.67729 37222 ft 446 kts 85°
2026-04-26 06:39 -34.83176 147.75284 37228 ft 446 kts 85°
2026-04-26 06:40 -34.82806 147.82787 37218 ft 447 kts 85°
2026-04-26 06:40 -34.82427 147.90356 37216 ft 447 kts 85°
2026-04-26 06:41 -34.82042 147.97932 37226 ft 447 kts 85°
2026-04-26 06:41 -34.81655 148.05493 37225 ft 447 kts 85°
2026-04-26 06:42 -34.81263 148.13069 37221 ft 448 kts 85°
2026-04-26 06:42 -34.79953 148.20400 37224 ft 445 kts 64°
2026-04-26 06:43 -34.77201 148.27156 37217 ft 446 kts 62°
2026-04-26 06:43 -34.74400 148.33908 37219 ft 447 kts 62°
2026-04-26 06:44 -34.71573 148.40714 37222 ft 448 kts 62°
2026-04-26 06:44 -34.68755 148.47489 37228 ft 448 kts 62°
2026-04-26 06:45 -34.65916 148.54295 37237 ft 449 kts 62°
2026-04-26 06:45 -34.63097 148.61044 37057 ft 446 kts 62°
2026-04-26 06:45 -34.61692 148.64394 36489 ft 446 kts 62°
2026-04-26 06:46 -34.60273 148.67754 36031 ft 444 kts 62°
2026-04-26 06:46 -34.58854 148.71097 35901 ft 434 kts 62°
2026-04-26 06:46 -34.57482 148.74321 35771 ft 425 kts 62°
2026-04-26 06:46 -34.56137 148.77473 35650 ft 416 kts 62°
2026-04-26 06:47 -34.54832 148.80524 35519 ft 407 kts 62°
2026-04-26 06:47 -34.53526 148.83569 35123 ft 407 kts 62°
2026-04-26 06:47 -34.52208 148.86621 34641 ft 408 kts 62°
2026-04-26 06:47 -34.50861 148.89718 34149 ft 410 kts 62°
2026-04-26 06:48 -34.49537 148.92742 33614 ft 411 kts 62°
2026-04-26 06:48 -34.48186 148.95819 33087 ft 413 kts 62°
2026-04-26 06:48 -34.46835 148.98889 32572 ft 413 kts 62°
2026-04-26 06:48 -34.45688 149.02092 32053 ft 413 kts 76°
2026-04-26 06:49 -34.45308 149.05586 31542 ft 411 kts 92°
2026-04-26 06:49 -34.45478 149.08988 31065 ft 411 kts 95°
2026-04-26 06:49 -34.45686 149.12487 30579 ft 411 kts 95°
2026-04-26 06:49 -34.45895 149.15953 30067 ft 411 kts 95°
2026-04-26 06:50 -34.46101 149.19413 29503 ft 411 kts 94°
2026-04-26 06:50 -34.46302 149.22877 28964 ft 411 kts 94°
2026-04-26 06:50 -34.46501 149.26331 28422 ft 411 kts 94°
2026-04-26 06:50 -34.46703 149.29844 27885 ft 411 kts 94°
2026-04-26 06:51 -34.46900 149.33257 27378 ft 410 kts 94°
2026-04-26 06:51 -34.47297 149.40149 26370 ft 408 kts 93°
2026-04-26 06:51 -34.47493 149.43574 25882 ft 407 kts 93°
2026-04-26 06:52 -34.47687 149.46999 25400 ft 406 kts 93°
2026-04-26 06:52 -34.47879 149.50417 24923 ft 405 kts 93°
2026-04-26 06:52 -34.48068 149.53816 24457 ft 404 kts 93°
2026-04-26 06:52 -34.48256 149.57220 23998 ft 403 kts 92°
2026-04-26 06:53 -34.48440 149.60600 23489 ft 401 kts 92°
2026-04-26 06:53 -34.48622 149.63969 22949 ft 400 kts 92°
2026-04-26 06:53 -34.48742 149.66202 22595 ft 400 kts 92°
2026-04-26 06:53 -34.48981 149.70658 21904 ft 398 kts 92°
2026-04-26 06:54 -34.49160 149.74002 21395 ft 397 kts 92°
2026-04-26 06:54 -34.49280 149.76233 21058 ft 397 kts 92°
2026-04-26 06:54 -34.49458 149.79563 20562 ft 395 kts 93°
2026-04-26 06:54 -34.49634 149.82883 20072 ft 394 kts 92°
2026-04-26 06:55 -34.49809 149.86193 19590 ft 392 kts 93°
2026-04-26 06:55 -34.49940 149.89481 19114 ft 389 kts 88°
2026-04-26 06:55 -34.49673 149.92734 18648 ft 386 kts 78°
2026-04-26 06:55 -34.48946 149.95844 18132 ft 382 kts 68°
2026-04-26 06:56 -34.47811 149.98733 17612 ft 378 kts 60°
2026-04-26 06:56 -34.46560 150.01538 17087 ft 375 kts 61°
2026-04-26 06:56 -34.45315 150.04337 16575 ft 372 kts 61°
2026-04-26 06:56 -34.44099 150.07079 16071 ft 368 kts 61°
2026-04-26 06:57 -34.42892 150.09810 15579 ft 365 kts 61°
2026-04-26 06:57 -34.41695 150.12520 15091 ft 362 kts 61°
2026-04-26 06:57 -34.40509 150.15192 14615 ft 359 kts 61°
2026-04-26 06:57 -34.39327 150.17842 14149 ft 356 kts 61°
2026-04-26 06:58 -34.38163 150.20446 13642 ft 354 kts 61°
2026-04-26 06:58 -34.36982 150.23094 13118 ft 351 kts 61°
2026-04-26 06:58 -34.35825 150.25690 12605 ft 349 kts 62°
2026-04-26 06:58 -34.34692 150.28236 12109 ft 346 kts 62°
2026-04-26 06:59 -34.33551 150.30804 11610 ft 344 kts 62°
2026-04-26 06:59 -34.32406 150.33373 11118 ft 342 kts 62°
2026-04-26 06:59 -34.31289 150.35870 10636 ft 340 kts 61°
2026-04-26 06:59 -34.30154 150.38403 10167 ft 338 kts 62°
2026-04-26 07:00 -34.29034 150.40894 9645 ft 336 kts 61°
2026-04-26 07:00 -34.27921 150.43366 9128 ft 334 kts 61°
2026-04-26 07:00 -34.26814 150.45836 8621 ft 333 kts 61°
2026-04-26 07:00 -34.25716 150.48291 8117 ft 332 kts 61°
2026-04-26 07:01 -34.24614 150.50751 7626 ft 331 kts 61°
2026-04-26 07:01 -34.23517 150.53194 7142 ft 330 kts 60°
2026-04-26 07:01 -34.22432 150.55613 6670 ft 330 kts 60°
2026-04-26 07:01 -34.21327 150.58082 6174 ft 329 kts 61°
2026-04-26 07:02 -34.20161 150.60683 5995 ft 316 kts 60°
2026-04-26 07:02 -34.19220 150.62777 6014 ft 300 kts 61°
2026-04-26 07:02 -34.18248 150.64942 6015 ft 285 kts 61°
2026-04-26 07:02 -34.17323 150.67005 6019 ft 271 kts 60°
2026-04-26 07:03 -34.16446 150.68957 6014 ft 260 kts 61°
2026-04-26 07:03 -34.15587 150.70869 6017 ft 258 kts 60°
2026-04-26 07:03 -34.14730 150.72772 6019 ft 258 kts 60°
2026-04-26 07:03 -34.13872 150.74677 6019 ft 258 kts 60°
2026-04-26 07:04 -34.13277 150.75996 6018 ft 258 kts 60°
2026-04-26 07:04 -34.12411 150.77924 6018 ft 257 kts 60°
2026-04-26 07:04 -34.11550 150.79829 6019 ft 257 kts 60°
2026-04-26 07:04 -34.10689 150.81725 6013 ft 257 kts 60°
2026-04-26 07:05 -34.09842 150.83597 6016 ft 257 kts 60°
2026-04-26 07:05 -34.08990 150.85491 6014 ft 257 kts 60°
2026-04-26 07:05 -34.08138 150.87396 6014 ft 257 kts 60°
2026-04-26 07:05 -34.07287 150.89297 6016 ft 257 kts 60°
2026-04-26 07:06 -34.06436 150.91187 6016 ft 256 kts 60°
2026-04-26 07:06 -34.05562 150.93131 6016 ft 256 kts 60°
2026-04-26 07:06 -34.04717 150.95008 6018 ft 256 kts 60°
2026-04-26 07:06 -34.03884 150.96909 6013 ft 256 kts 66°
2026-04-26 07:07 -34.03457 150.98997 6013 ft 257 kts 86°
2026-04-26 07:07 -34.03629 151.01079 6009 ft 244 kts 106°
2026-04-26 07:07 -34.04303 151.02878 6011 ft 229 kts 124°
2026-04-26 07:07 -34.05324 151.04325 6012 ft 225 kts 134°
2026-04-26 07:08 -34.06406 151.05689 6015 ft 225 kts 134°
2026-04-26 07:08 -34.07579 151.06936 6013 ft 224 kts 146°
2026-04-26 07:08 -34.08943 151.07839 6012 ft 224 kts 159°
2026-04-26 07:08 -34.10434 151.08366 6015 ft 223 kts 169°
2026-04-26 07:09 -34.11984 151.08754 5634 ft 230 kts 169°
2026-04-26 07:09 -34.13579 151.09164 5073 ft 240 kts 169°
2026-04-26 07:09 -34.15208 151.09588 4677 ft 241 kts 168°
2026-04-26 07:09 -34.16813 151.10010 4538 ft 230 kts 168°
2026-04-26 07:10 -34.21166 151.11128 4100 ft 205 kts 168°
2026-04-26 07:11 -34.23262 151.13127 3524 ft 200 kts 100°
2026-04-26 07:11 -34.23267 151.14772 3188 ft 194 kts 77°
2026-04-26 07:11 -34.23000 151.16339 3010 ft 183 kts 73°
2026-04-26 07:11 -34.22735 151.17748 2993 ft 164 kts 71°
2026-04-26 07:12 -34.22180 151.18798 2997 ft 141 kts 30°
2026-04-26 07:12 -34.21300 151.19262 3002 ft 137 kts 15°
2026-04-26 07:12 -34.20388 151.19577 3006 ft 136 kts 13°
2026-04-26 07:12 -34.19473 151.19868 3003 ft 135 kts 13°
2026-04-26 07:13 -34.18573 151.20155 3017 ft 136 kts 12°
2026-04-26 07:13 -34.17657 151.20450 3018 ft 136 kts 14°
2026-04-26 07:13 -34.16740 151.20741 3019 ft 136 kts 13°
2026-04-26 07:13 -34.15823 151.21032 3014 ft 136 kts 14°
2026-04-26 07:14 -34.14903 151.21281 3011 ft 136 kts
2026-04-26 07:14 -34.13980 151.21062 3016 ft 136 kts 349°
2026-04-26 07:14 -34.13091 151.21315 2999 ft 136 kts 26°
2026-04-26 07:14 -34.12216 151.21709 3000 ft 135 kts
2026-04-26 07:15 -34.11268 151.21677 2898 ft 136 kts 354°
2026-04-26 07:15 -34.10334 151.21485 2773 ft 136 kts 351°
2026-04-26 07:15 -34.09404 151.21299 2670 ft 136 kts 354°
2026-04-26 07:15 -34.08459 151.21125 2335 ft 138 kts 352°
2026-04-26 07:16 -34.07531 151.20918 2068 ft 131 kts 351°
2026-04-26 07:16 -34.06648 151.20705 2081 ft 132 kts 351°
2026-04-26 07:16 -34.05750 151.20480 1870 ft 131 kts 351°
2026-04-26 07:16 -34.04857 151.20252 1712 ft 131 kts 352°
2026-04-26 07:17 -34.03978 151.20026 1541 ft 130 kts 351°
2026-04-26 07:17 -34.03076 151.19793 1360 ft 130 kts 351°
2026-04-26 07:17 -34.02200 151.19565 1193 ft 128 kts 351°
2026-04-26 07:17 -34.01326 151.19338 1024 ft 130 kts 352°
2026-04-26 07:18 -34.00446 151.19110 843 ft 130 kts 351°
2026-04-26 07:18 -33.99566 151.18881 675 ft 129 kts 354°
2026-04-26 07:18 -33.98688 151.18653 510 ft 128 kts 351°
2026-04-26 07:18 -33.98054 151.18488 393 ft 127 kts 353°
2026-04-26 07:19 -33.97163 151.18250 215 ft 133 kts 351°
2026-04-26 07:19 -33.96223 151.18008 28 ft 125 kts 352°
2026-04-26 07:19 -33.95532 151.17839 23 ft 89 kts 347°
2026-04-26 07:19 -33.95104 151.17725 20 ft 35 kts 348°
2026-04-26 07:20 -33.94837 151.17657 23 ft 31 kts 347°
2026-04-26 07:20 -33.94639 151.17650 23 ft 24 kts
2026-04-26 07:20 -33.94544 151.17676 24 ft 1 kts 17°
2026-04-26 07:20 -33.94477 151.17699 25 ft 15 kts 18°
2026-04-26 07:21 -33.94450 151.17710 26 ft 0 kts 18°
2026-04-26 07:22 -33.94392 151.17733 25 ft 16 kts 17°
2026-04-26 07:22 -33.94243 151.17708 22 ft 26 kts 347°
2026-04-26 07:22 -33.94199 151.17694 22 ft 5 kts 345°
2026-04-26 07:22 -33.94146 151.17677 22 ft 12 kts 346°
2026-04-26 07:23 -33.94061 151.17651 22 ft 17 kts 345°
2026-04-26 07:23 -33.93961 151.17622 21 ft 17 kts 348°
2026-04-26 07:23 -33.93871 151.17667 19 ft 20 kts 64°
2026-04-26 07:23 -33.93828 151.17836 23 ft 17 kts 73°
2026-04-26 07:24 -33.93796 151.17971 29 ft 17 kts 73°
2026-04-26 07:24 -33.93757 151.18130 31 ft 12 kts 75°
2026-04-26 07:24 -33.93748 151.18169 31 ft 4 kts 62°
2026-04-26 07:24 -33.93712 151.18086 31 ft 17 kts 304°
2026-04-26 07:25 -33.93677 151.17988 31 ft 1 kts 277°
2026-04-26 07:25 -33.93677 151.17983 31 ft 0 kts 277°